When you browse on this site, cookies collect data to enhance your experience and personalize the content and advertising you see.
Visit our Privacy Policy to learn more. By continuing to use the site, you agree to this use of cookies and data.
  • En España
  • Lista de países
  • Para 7 días
  • Temperatura del agua
  • Mapa Satelital
  • El tiempo en el mapa
  • Informadores
  • user-avatar
    Iniciar sesión

    Tiempo cada hora Chervonyi Lyman

    Hoy, 24 Mayo, Viernes

    Tiempo Temperatura Precipitaciones Viento Presión Humedad
    00:00 +16°C° 0 mm 1 mps 747 mmHg 77%
    01:00 +15°C° 0 mm 1 mps 748 mmHg 79%
    02:00 +15°C° 0 mm 2 mps 748 mmHg 80%
    03:00 +14°C° 0 mm 1 mps 747 mmHg 85%
    04:00 +15°C° 0 mm 1 mps 747 mmHg 84%
    05:00 +15°C° 0 mm 1 mps 748 mmHg 82%
    06:00 +16°C° 0 mm 1 mps 748 mmHg 81%
    07:00 +19°C° 0 mm 1 mps 748 mmHg 74%
    08:00 +20°C° 0 mm 2 mps 748 mmHg 68%
    09:00 +21°C° 0 mm 2 mps 748 mmHg 61%
    10:00 +24°C° 0 mm 1 mps 748 mmHg 56%
    11:00 +25°C° 0 mm 1 mps 748 mmHg 52%
    12:00 +27°C° 0 mm 1 mps 748 mmHg 48%
    13:00 +27°C° 0 mm 1 mps 748 mmHg 46%
    14:00 +27°C° 0 mm 1 mps 748 mmHg 44%
    15:00 +26°C° 0 mm 0 mps 748 mmHg 43%
    16:00 +25°C° 0 mm 0 mps 748 mmHg 45%
    17:00 +25°C° 0 mm 0 mps 748 mmHg 47%
    18:00 +24°C° 0 mm 0 mps 748 mmHg 49%
    19:00 +23°C° 0 mm 0 mps 748 mmHg 52%
    20:00 +24°C° 0 mm 1 mps 748 mmHg 55%
    21:00 +22°C° 0 mm 1 mps 748 mmHg 58%
    22:00 +20°C° 0 mm 2 mps 748 mmHg 64%
    23:00 +19°C° 0 mm 2 mps 748 mmHg 69%

    Mañana, 25 Mayo, Sábado

    Tiempo Temperatura Precipitaciones Viento Presión Humedad
    00:00 +18°C° 0 mm 2 mps 748 mmHg 74%
    01:00 +18°C° 0 mm 2 mps 748 mmHg 76%
    02:00 +18°C° 0 mm 2 mps 748 mmHg 78%
    03:00 +17°C° 0 mm 2 mps 748 mmHg 79%
    04:00 +17°C° 0 mm 2 mps 748 mmHg 78%
    05:00 +17°C° 0 mm 2 mps 748 mmHg 78%
    06:00 +17°C° 0 mm 2 mps 748 mmHg 77%
    07:00 +19°C° 0.1 mm 2 mps 748 mmHg 72%
    08:00 +21°C° 0.1 mm 3 mps 748 mmHg 67%
    09:00 +24°C° 0.1 mm 3 mps 748 mmHg 62%
    10:00 +24°C° 0.7 mm 3 mps 748 mmHg 61%
    11:00 +24°C° 0.7 mm 3 mps 748 mmHg 59%
    12:00 +25°C° 0.7 mm 3 mps 747 mmHg 58%
    13:00 +25°C° 0.4 mm 4 mps 747 mmHg 58%
    14:00 +25°C° 0.4 mm 4 mps 747 mmHg 59%
    15:00 +25°C° 0.4 mm 4 mps 747 mmHg 59%
    16:00 +23°C° 0.8 mm 4 mps 747 mmHg 66%
    17:00 +22°C° 0.8 mm 3 mps 746 mmHg 73%
    18:00 +21°C° 0.8 mm 3 mps 746 mmHg 80%
    19:00 +20°C° 0.7 mm 2 mps 746 mmHg 83%
    20:00 +19°C° 0.7 mm 2 mps 746 mmHg 86%
    21:00 +18°C° 0.7 mm 2 mps 746 mmHg 89%
    22:00 +18°C° 3.4 mm 3 mps 745 mmHg 89%
    23:00 +18°C° 3.4 mm 3 mps 745 mmHg 89%

    Pasado mañana, 26 Mayo, Domingo

    Tiempo Temperatura Precipitaciones Viento Presión Humedad
    00:00 +18°C° 3.4 mm 4 mps 745 mmHg 89%
    01:00 +17°C° 1.2 mm 4 mps 745 mmHg 90%
    02:00 +17°C° 1.2 mm 4 mps 745 mmHg 90%
    03:00 +17°C° 1.2 mm 4 mps 744 mmHg 91%
    04:00 +17°C° 1.9 mm 4 mps 744 mmHg 89%
    05:00 +17°C° 1.9 mm 4 mps 744 mmHg 87%
    06:00 +17°C° 1.9 mm 4 mps 745 mmHg 86%
    07:00 +18°C° 1.1 mm 4 mps 745 mmHg 85%
    08:00 +17°C° 1.1 mm 5 mps 745 mmHg 84%
    09:00 +19°C° 1.1 mm 5 mps 746 mmHg 84%
    10:00 +20°C° 1.1 mm 5 mps 746 mmHg 79%
    11:00 +21°C° 1.1 mm 5 mps 746 mmHg 75%
    12:00 +22°C° 1.1 mm 5 mps 746 mmHg 70%
    13:00 +22°C° 0.8 mm 5 mps 746 mmHg 68%
    14:00 +23°C° 0.8 mm 6 mps 746 mmHg 65%
    15:00 +23°C° 0.8 mm 6 mps 746 mmHg 63%
    16:00 +23°C° 0.5 mm 6 mps 746 mmHg 66%
    17:00 +23°C° 0.5 mm 5 mps 746 mmHg 70%
    18:00 +23°C° 0.5 mm 5 mps 747 mmHg 73%
    19:00 +21°C° 0.7 mm 4 mps 747 mmHg 76%
    20:00 +20°C° 0.7 mm 4 mps 747 mmHg 80%
    21:00 +19°C° 0.7 mm 4 mps 748 mmHg 83%
    22:00 +19°C° 0.7 mm 3 mps 748 mmHg 86%
    23:00 +18°C° 0.7 mm 3 mps 749 mmHg 88%

    27 Mayo, Lunes

    Tiempo Temperatura Precipitaciones Viento Presión Humedad
    00:00 +18°C° 0.7 mm 3 mps 749 mmHg 90%
    01:00 +18°C° 0 mm 3 mps 749 mmHg 90%
    02:00 +17°C° 0 mm 3 mps 750 mmHg 91%
    03:00 +17°C° 0 mm 3 mps 750 mmHg 92%
    04:00 +17°C° 0 mm 3 mps 750 mmHg 91%
    05:00 +17°C° 0 mm 3 mps 751 mmHg 90%
    06:00 +17°C° 0 mm 2 mps 751 mmHg 90%
    07:00 +18°C° 0 mm 3 mps 752 mmHg 83%
    08:00 +20°C° 0 mm 3 mps 752 mmHg 77%
    09:00 +22°C° 0 mm 3 mps 753 mmHg 70%
    10:00 +24°C° 0 mm 3 mps 753 mmHg 64%
    11:00 +25°C° 0 mm 3 mps 753 mmHg 58%
    12:00 +26°C° 0 mm 3 mps 753 mmHg 51%
    13:00 +26°C° 0 mm 3 mps 753 mmHg 50%
    14:00 +26°C° 0 mm 3 mps 754 mmHg 49%
    15:00 +27°C° 0 mm 3 mps 754 mmHg 48%
    16:00 +26°C° 0 mm 3 mps 754 mmHg 51%
    17:00 +26°C° 0 mm 3 mps 754 mmHg 54%
    18:00 +26°C° 0 mm 2 mps 754 mmHg 57%
    19:00 +24°C° 0 mm 2 mps 754 mmHg 61%
    20:00 +23°C° 0 mm 1 mps 755 mmHg 65%
    21:00 +21°C° 0 mm 1 mps 755 mmHg 69%
    22:00 +21°C° 0 mm 1 mps 755 mmHg 70%
    23:00 +20°C° 0 mm 1 mps 755 mmHg 71%

    28 Mayo, Martes

    Tiempo Temperatura Precipitaciones Viento Presión Humedad
    00:00 +20°C° 0 mm 1 mps 756 mmHg 73%
    01:00 +20°C° 0 mm 1 mps 756 mmHg 74%
    02:00 +19°C° 0 mm 1 mps 756 mmHg 75%
    03:00 +19°C° 0 mm 1 mps 756 mmHg 76%
    04:00 +19°C° 0 mm 1 mps 756 mmHg 76%
    05:00 +20°C° 0 mm 1 mps 756 mmHg 76%
    06:00 +20°C° 0 mm 1 mps 756 mmHg 76%
    07:00 +22°C° 0 mm 1 mps 757 mmHg 70%
    08:00 +24°C° 0 mm 1 mps 757 mmHg 63%
    09:00 +26°C° 0 mm 1 mps 757 mmHg 57%
    10:00 +27°C° 0 mm 1 mps 757 mmHg 54%
    11:00 +27°C° 0 mm 2 mps 757 mmHg 50%
    12:00 +28°C° 0 mm 2 mps 757 mmHg 47%
    13:00 +29°C° 0 mm 2 mps 757 mmHg 46%
    14:00 +29°C° 0 mm 2 mps 756 mmHg 46%
    15:00 +30°C° 0 mm 2 mps 756 mmHg 45%
    16:00 +29°C° 0 mm 2 mps 756 mmHg 49%
    17:00 +29°C° 0 mm 2 mps 756 mmHg 52%
    18:00 +29°C° 0 mm 2 mps 756 mmHg 56%
    19:00 +27°C° 0 mm 2 mps 756 mmHg 61%
    20:00 +25°C° 0 mm 2 mps 756 mmHg 65%
    21:00 +23°C° 0 mm 2 mps 756 mmHg 70%
    22:00 +23°C° 0 mm 2 mps 756 mmHg 72%
    23:00 +21°C° 0 mm 2 mps 756 mmHg 74%

    29 Mayo, Miércoles

    Tiempo Temperatura Precipitaciones Viento Presión Humedad
    00:00 +21°C° 0 mm 2 mps 756 mmHg 75%
    01:00 +20°C° 0 mm 2 mps 756 mmHg 75%
    02:00 +20°C° 0 mm 2 mps 756 mmHg 76%
    03:00 +19°C° 0 mm 2 mps 756 mmHg 76%
    04:00 +19°C° 0 mm 2 mps 756 mmHg 76%
    05:00 +20°C° 0 mm 2 mps 756 mmHg 76%
    06:00 +20°C° 0 mm 2 mps 756 mmHg 77%
    07:00 +22°C° 0 mm 3 mps 756 mmHg 70%
    08:00 +25°C° 0 mm 4 mps 756 mmHg 63%
    09:00 +26°C° 0 mm 5 mps 756 mmHg 57%
    10:00 +27°C° 0 mm 5 mps 756 mmHg 55%
    11:00 +28°C° 0 mm 5 mps 756 mmHg 52%
    12:00 +29°C° 0 mm 5 mps 756 mmHg 50%
    13:00 +30°C° 0 mm 5 mps 755 mmHg 50%
    14:00 +30°C° 0 mm 5 mps 755 mmHg 49%
    15:00 +30°C° 0 mm 5 mps 755 mmHg 49%
    16:00 +30°C° 0 mm 5 mps 755 mmHg 52%
    17:00 +30°C° 0 mm 4 mps 755 mmHg 55%
    18:00 +29°C° 0 mm 3 mps 755 mmHg 58%
    19:00 +28°C° 0 mm 3 mps 755 mmHg 62%
    20:00 +26°C° 0 mm 3 mps 755 mmHg 66%
    21:00 +24°C° 0 mm 3 mps 755 mmHg 70%
    22:00 +22°C° 0 mm 3 mps 755 mmHg 72%
    23:00 +22°C° 0 mm 3 mps 754 mmHg 74%
    Mostrar más